Location: Br�ttisellen
(47.4227°N, 8.6287°E)
Time: 18:07:38
(UTC+00:00)

STARLINK-1202 - Pass Details

Date: 09 April 2020
Orbit: 549 x 550 km, 53.0° (Epoch: 02 June)

Event Time Altitude Azimuth Distance (km) Brightness Sun altitude
Rises 20:34:15 0° 297° (WNW) 2,668 8.4 -22.7°
Reaches altitude 10° 20:36:29 10° 293° (WNW) 1,776 7.2 -23.0°
Enters shadow 20:40:00 52° 242° (WSW) 663 4.0 -23.4°
